Location: Härggis
(46.9540°N, 8.4897°E)
Time: 20:55:58
(UTC+00:00)

SL-16 R/B - Pass Details

Date: 08 October 2022
Orbit: 985 x 1007 km, 99.6° (Epoch: 05 December)

Event Time Altitude Azimuth Distance (km) Brightness Sun altitude
Exits shadow 01:40:10 16° 340° (NNW) 2,384 4.7 -38.3°
Drops below altitude 10° 01:41:14 10° 342° (NNW) 2,781 5.1 -38.1°
Sets 01:43:44 0° 344° (NNW) 3,737 5.8 -37.8°
